Regional Weather Roundup
Issued by NWS Wakefield, VA

Home | Current Version | Previous Version | Text Only | Print | Product List | Glossary On
Versions: 1 2 3 4 5 6 7 8 9 10 11 12 13 14 15 16 17 18 19 20 21 22 23 24 25 26 27
000
ASUS41 KAKQ 171310
RWRAKQ

REGIONAL WEATHER ROUNDUP
NATIONAL WEATHER SERVICE WAKEFIELD VA
900 AM EDT THU APR 17 2014

Note: "fair" indicates few or no clouds below 12,000 feet with no
significant weather and/or obstructions to visibility. * = Denotes
station may not report precipitation (e.g., rain,snow,etc.),
thunder or fog.

VAZ042-051-052>054-056-171400-
NORTHERN VIRGINIA

CITY           SKY/WX    TMP DP  RH WIND       PRES   REMARKS
WASH NATIONAL  PTSUNNY   46  31  55 NE10      30.66R
DULLES         MOSUNNY   41  29  62 E5        30.64R
FORT BELVOIR   SUNNY     44  31  60 VRB3      30.66R
QUANTICO       MOSUNNY   45  32  60 E10       30.66R
FREDERICKSBRG* SUNNY     45  34  65 E5        30.63S
STAFFORD*      SUNNY     45  34  65 E10       30.68R
WARRENTON      SUNNY     41  34  76 CALM      30.63S
CULPEPER*      SUNNY     43  28  56 CALM      30.65R
MANASSAS*      SUNNY     41  32  70 N3        30.65R
LEESBURG*      MOSUNNY   41  32  70 CALM      30.65R
WINCHESTER     MOSUNNY   39  27  60 E5        30.61R
$$

VAZ048-049-060>072-079>083-171400-
CENTRAL AND SOUTH CENTRAL VIRGINIA...AND NORTH CENTRAL NORTH CAROLINA

CITY           SKY/WX    TMP DP  RH WIND       PRES   REMARKS
RICHMOND       MOSUNNY   45  30  55 NE8       30.60S
CHESTERFIELD*  NOT AVBL
HANOVER        SUNNY     43  32  65 NE8       30.62S
TAPPAHANNOCK*  SUNNY     46  29  51 NE10G16   30.62S
CHARLOTTSVILLE SUNNY     39  25  57 N5        30.61R
ORANGE*        SUNNY     41  30  65 N6        30.64R
LOUISA*        SUNNY     41  30  65 N5        30.60S
FARMVILLE*     SUNNY     39  30  70 NE7       30.58S
SOUTH HILL*    SUNNY     45  34  65 CALM      30.61S
ROANOKE RAPIDS SUNNY     45  36  70 N13       30.55S
RALEIGH        PTSUNNY   42  31  64 NE12G22   30.55R
$$

VAZ088>098-171400-
SOUTHEAST VIRGINIA

CITY           SKY/WX    TMP DP  RH WIND       PRES   REMARKS
NORFOLK        SUNNY     47  37  68 NE15G22   30.57R
VIRGINIA BEACH PTSUNNY   48  37  65 NE22G28   30.55S
NORFOLK NAVAL  MOSUNNY   49  36  61 NE18      30.59R
WEST POINT*    SUNNY     47  35  60 NE7       30.63R
NEWPORT NEWS   SUNNY     50  34  54 NE15G26   30.59R
LANGLEY AFB    SUNNY     47  37  66 NE16      30.59R
FORT EUSTIS    SUNNY     48  37  65 NE10G18   30.57R
WILLIAMSBURG*  SUNNY     46  37  71 NE7       30.60R
FRANKLIN*      SUNNY     48  37  66 E13G18    30.56S
WAKEFIELD      SUNNY     46  34  62 VRB6      30.58R
$$

VAZ020-022-025-037-045-171400-
WESTERN AND SOUTHWEST VIRGINIA

CITY           SKY/WX    TMP DP  RH WIND       PRES   REMARKS
STAUNTON*      SUNNY     36  24  60 CALM      30.60S
HOT SPRINGS VA SUNNY     30  16  55 SE8       30.49R
LYNCHBURG      SUNNY     45  27  49 VRB6      30.59R
DANVILLE       SUNNY     42  28  57 NE9       30.57R
MARTINSVILLE   SUNNY     40  29  65 NE7       30.59S
ROANOKE        MOSUNNY   39  22  50 CALM      30.59R
BLACKSBURG     SUNNY     37  25  60 E5        30.54R
DUBLIN*        SUNNY     35  23  62 NE6       30.53R
MARION*        SUNNY     37  23  55 NE13      30.50R
HILLSVILLE*    SUNNY     36  18  48 SE5       30.51S
RICHLANDS*     MOSUNNY   45  20  37 SE7       30.41R
WISE*          MOSUNNY   43  19  39 S8        30.41R
ABINGDON*      SUNNY     42  22  45 E15       30.43S
$$

MDZ021>025-VAZ099-100-171400-
SOUTHERN MARYLAND AND THE DELMARVA PENINSULA

CITY           SKY/WX    TMP DP  RH WIND       PRES   REMARKS
PATUXENT RIVER PTSUNNY   45  31  58 E12       30.64R
BAY BRIDGE APT SUNNY     43  32  65 E9G16     30.66R
LEONARDTOWN    SUNNY     43  30  61 E8        30.65R
DOVER          PTSUNNY   43  34  70 E14       30.63R
GEORGETOWN     PTSUNNY   45  32  60 E16G23    30.65R
EASTON         MOSUNNY   45  37  76 E8        30.68R
CAMBRIDGE      SUNNY     46  32  57 E8        30.64R
SALISBURY      CLOUDY    44  34  67 E6        30.64R
OCEAN CITY     CLOUDY    44  31  60 E14G20    30.64R
WALLOPS ISLAND PTSUNNY   48  35  60 E14G21    30.63R
ACCOMACK*      NOT AVBL
$$

NCZ012>017-030>032-171400-
EASTERN NORTH CAROLINA

CITY           SKY/WX    TMP DP  RH WIND       PRES   REMARKS
ELIZABETH CITY SUNNY     49  38  65 N22G29    30.53R
AHOSKIE*       SUNNY     43  35  73 N9        30.55S
EDENTON*       SUNNY     47  39  73 NE12      30.52S
CURRITUCK*     SUNNY     49  36  61 N21       30.54S
KILL DEVIL HLS PTSUNNY   48  40  73 N12G23    30.50R
MANTEO         CLOUDY    49  40  71 NE18G28   30.50S
CAPE HATTERAS  MOSUNNY   51  44  77 NE16G31   30.44S
GOLDSBORO      SUNNY     44  35  71 N12       30.50R
WASHINGTON     SUNNY     46  39  76 N14       30.50S
GREENVILLE     SUNNY     45  36  70 NE12G18   30.52R
NEW BERN       SUNNY     49  39  68 N13       30.49S
WILMINGTON     SUNNY     48  36  63 N14       30.46R
$$

VAZ048-171400-
ELSEWHERE

CITY           SKY/WX    TMP DP  RH WIND       PRES   REMARKS
HARRISBURG PA  MOSUNNY   42  23  46 SE8       30.66R
BALTIMORE      PTSUNNY   44  30  57 E13       30.65R
ANNAPOLIS      SUNNY     43  32  65 E12       30.65R
ANDREWS AFB    SUNNY     43  31  60 NE6       30.64R
WILMINGTON DE  SUNNY     43  29  57 E13       30.68R
PHILADELPHIA   MOSUNNY   44  28  53 E10       30.69R
WILDWOOD NJ*   CLOUDY    43  30  61 E12G18    30.66R
ATLANTIC CITY  MOSUNNY   42  29  59 E18G29    30.67R
HENDERSON NC   SUNNY     41  32  71 NE9       30.56R
GREENSBORO     PTSUNNY   39  29  67 NE7       30.54R
ROCKY MOUNT      N/A    N/A N/A N/A MISG      30.54R
FAYETTEVILLE   SUNNY     45  31  58 NE15      30.50R
CHARLOTTE      PTSUNNY   44  29  55 NE9       30.52R
$$

VAZ100-171400-
MARINE

STATION/POSITION TIME  TEMP    WIND        PRES    WAVE   SWELL
                       AIR SEA DIR/SP/G            HT/PER HT/PER
                 (UTC) (F)     (DEG/KT/KT) (MB)    (FT/S) (FT/S)
44066 TX TWR #4  1300   41 45   60/ 21/ 27 1037.0R   9/ 7   3/10
CAPE MAY NJ      1300   44 52   90/  9/ 16 1037.6R
LEWES DE         1300   43 48   90/ 17/ 20 1037.2R
15NM E FENWICK I 1200   43 45              1036.3R   6/ 9
OCEAN-CITY-INLET 1300   43 45   90/ 11/ 19 1037.2R
WACHAPREAGUE VA  1300   46 50   50/ 17/ 20 1036.0R
THOMAS POINT MD  1300   42 52   90/ 12/ 14 1038.5R
GOOSES REEF MD   1300   44     100/ 12/ 14 1039.0S
COVE POINT MD    1300   42     110/ 11/ 12 1037.5R
SOLOMONS ISLAND  1300      51                N/A
BISHOPS HEAD MD  1300   45 50   60/ 10/ 16 1037.1R
PINEY POINT MD   1300          100/ 12/ 15   N/A
POTOMAC MD       1300   45      80/ 14/ 21 1036.3S
CAMBRIDGE MD     1300   44 55   70/ 11/ 14 1037.3R
LEWISETTA VA     1300   45 51   80/ 14/ 20 1036.8R
RAPPAHANNOCK LGT 1300           50/ 17/ 19 1036.6R
STINGRAY PT      1300   45      80/ 16/ 19 1036.2R
YORK RVR RNG VA  1300   45      60/ 21/ 23 1034.9S
YORKTOWN VA      1300   45 54   60/ 17/ 19 1035.7R
JAMESTOWN VA     1300   44      80/ 10/ 16   N/A
DOMINION TERM VA 1300   46      50/ 11/ 19 1035.2S
KIPTOPEKE VA     1300      53   70/ 15/ 20   N/A
CHES BAY BRIDGE  1300   45 51   30/ 21/ 23 1034.7S
CAPE HENRY VA    1300   45      30/ 19/ 22   N/A
CHESAPEAKE LGHT  1200   45      40/ 24/ 26 1034.5R
WILLOUBY STN VA  1300   45      40/ 18/ 20 1034.3S
S CRANEY ISL VA  1300           10/ 11/ 20 1035.2R
CAPE HENRY BUOY  1300      46                N/A     7/ 6   2/11
1ST LANDING BUOY 1300      46                N/A     6/ 9   3/ 9
64NM E OF VA BCH 1300   50 51   20/ 25/ 29 1032.0R  10/10   7/10
DUCK PIER NC     1300   47 48   20/ 20/ 25 1032.3R
44100 DUCK FRF   1300      47                N/A     8/ 6   2/11
44056 DUCK FRF   1300      48                N/A     7/ 7   2/11
OREGON INLET NC  1300   48 48   10/ 17/ 26 1032.0R
HATTERAS NC      1300   50 53   10/ 27/ 32 1030.8R
CAPE LOOKOUT NC  1200   50      20/ 21/ 25 1030.2R
FRYING PAN SHLS  1300   56 62   50/ 23/ 27 1028.4R   9/ 7   2/10
$$



USA.gov is the U.S. government's official web portal to all federal, state and local government web resources and services.